• In Belarus
  • List of Countries
  • For 7 days
  • Water Temperature
  • Satellite Maps
  • Weather Map
  • Weather Widgets
  • user-avatar
    Login

    Hourly Weather Nenaste

    Today, 21 February, Thursday

    Time Temperature Precipitation Wind Pressure Humidity
    00:00 -15°C° 0 mm 5 mps 722 mmHg 90%
    01:00 -15°C° 0 mm 5 mps 722 mmHg 90%
    02:00 -14°C° 0.1 mm 5 mps 722 mmHg 91%
    03:00 -14°C° 0.1 mm 5 mps 721 mmHg 91%
    04:00 -13°C° 0 mm 3 mps 721 mmHg 92%
    05:00 -14°C° 0.1 mm 4 mps 721 mmHg 92%
    06:00 -12°C° 0.1 mm 4 mps 721 mmHg 92%
    07:00 -13°C° 0.1 mm 5 mps 721 mmHg 92%
    08:00 -12°C° 0.1 mm 5 mps 721 mmHg 92%
    09:00 -12°C° 0.1 mm 5 mps 721 mmHg 92%
    10:00 -11°C° 0.1 mm 5 mps 721 mmHg 92%
    11:00 -10°C° 0.1 mm 5 mps 721 mmHg 91%
    12:00 -10°C° 0.1 mm 5 mps 721 mmHg 91%
    13:00 -8°C° 0.1 mm 5 mps 721 mmHg 91%
    14:00 -8°C° 0.1 mm 5 mps 721 mmHg 91%
    15:00 -8°C° 0.1 mm 5 mps 722 mmHg 91%
    16:00 -8°C° 0.1 mm 5 mps 722 mmHg 90%
    17:00 -8°C° 0.1 mm 5 mps 722 mmHg 90%
    18:00 -8°C° 0.1 mm 5 mps 722 mmHg 90%
    19:00 -8°C° 0.1 mm 5 mps 722 mmHg 90%
    20:00 -8°C° 0.1 mm 5 mps 723 mmHg 90%
    21:00 -8°C° 0.1 mm 5 mps 723 mmHg 90%
    22:00 -8°C° 0.1 mm 5 mps 723 mmHg 90%
    23:00 -8°C° 0.1 mm 5 mps 723 mmHg 90%

    Tomorrow, 22 February, Friday

    Time Temperature Precipitation Wind Pressure Humidity
    00:00 -8°C° 0.1 mm 5 mps 723 mmHg 90%
    01:00 -8°C° 0.1 mm 5 mps 723 mmHg 90%
    02:00 -8°C° 0.2 mm 4 mps 723 mmHg 91%
    03:00 -7°C° 0.2 mm 4 mps 723 mmHg 91%
    04:00 -7°C° 0.2 mm 4 mps 723 mmHg 92%
    05:00 -7°C° 0.1 mm 4 mps 723 mmHg 92%
    06:00 -5°C° 0.1 mm 4 mps 723 mmHg 92%
    07:00 -4°C° 0.1 mm 4 mps 724 mmHg 91%
    08:00 -4°C° 0 mm 4 mps 724 mmHg 91%
    09:00 -4°C° 0 mm 4 mps 724 mmHg 90%
    10:00 -3°C° 0 mm 4 mps 724 mmHg 90%
    11:00 -3°C° 0.2 mm 4 mps 724 mmHg 91%
    12:00 -3°C° 0.2 mm 4 mps 724 mmHg 91%
    13:00 -3°C° 0.2 mm 4 mps 724 mmHg 92%
    14:00 -2°C° 0.2 mm 4 mps 723 mmHg 91%
    15:00 -2°C° 0.2 mm 4 mps 723 mmHg 91%
    16:00 -2°C° 0.2 mm 4 mps 723 mmHg 90%
    17:00 -2°C° 0.3 mm 4 mps 723 mmHg 91%
    18:00 -3°C° 0.3 mm 4 mps 723 mmHg 92%
    19:00 -3°C° 0.3 mm 4 mps 723 mmHg 93%
    20:00 -4°C° 0.2 mm 4 mps 724 mmHg 92%
    21:00 -5°C° 0.2 mm 5 mps 724 mmHg 90%
    22:00 -6°C° 0.2 mm 6 mps 725 mmHg 89%
    23:00 -7°C° 0.1 mm 5 mps 725 mmHg 89%

    Day after tomorrow, 23 February, Saturday

    Time Temperature Precipitation Wind Pressure Humidity
    00:00 -10°C° 0.1 mm 5 mps 726 mmHg 90%
    01:00 -10°C° 0.1 mm 4 mps 727 mmHg 90%
    02:00 -11°C° 0.1 mm 4 mps 727 mmHg 91%
    03:00 -11°C° 0.1 mm 4 mps 728 mmHg 91%
    04:00 -12°C° 0.1 mm 4 mps 728 mmHg 91%
    05:00 -12°C° 0 mm 4 mps 728 mmHg 92%
    06:00 -12°C° 0 mm 3 mps 729 mmHg 93%
    07:00 -13°C° 0 mm 3 mps 729 mmHg 93%
    08:00 -12°C° 0 mm 4 mps 729 mmHg 92%
    09:00 -12°C° 0 mm 4 mps 729 mmHg 91%
    10:00 -11°C° 0 mm 4 mps 730 mmHg 90%
    11:00 -10°C° 0 mm 4 mps 730 mmHg 89%
    12:00 -10°C° 0 mm 4 mps 730 mmHg 87%
    13:00 -9°C° 0 mm 4 mps 730 mmHg 86%
    14:00 -9°C° 0.1 mm 4 mps 730 mmHg 87%
    15:00 -9°C° 0.1 mm 4 mps 730 mmHg 88%
    16:00 -8°C° 0.1 mm 3 mps 730 mmHg 89%
    17:00 -9°C° 0.1 mm 3 mps 730 mmHg 91%
    18:00 -9°C° 0.1 mm 3 mps 730 mmHg 92%
    19:00 -9°C° 0.1 mm 3 mps 731 mmHg 94%
    20:00 -9°C° 0.1 mm 3 mps 731 mmHg 94%
    21:00 -9°C° 0.1 mm 3 mps 731 mmHg 94%
    22:00 -9°C° 0.1 mm 3 mps 731 mmHg 94%
    23:00 -9°C° 0.1 mm 3 mps 731 mmHg 94%

    24 February, Sunday

    Time Temperature Precipitation Wind Pressure Humidity
    00:00 -10°C° 0.1 mm 3 mps 731 mmHg 94%
    01:00 -10°C° 0.1 mm 3 mps 731 mmHg 94%
    02:00 -12°C° 0.1 mm 3 mps 731 mmHg 94%
    03:00 -12°C° 0.1 mm 4 mps 731 mmHg 94%
    04:00 -14°C° 0.1 mm 4 mps 731 mmHg 94%
    05:00 -14°C° 0.1 mm 4 mps 731 mmHg 94%
    06:00 -15°C° 0.1 mm 4 mps 731 mmHg 93%
    07:00 -15°C° 0.1 mm 4 mps 732 mmHg 93%
    08:00 -15°C° 0 mm 4 mps 732 mmHg 92%
    09:00 -15°C° 0 mm 4 mps 732 mmHg 91%
    10:00 -14°C° 0 mm 5 mps 732 mmHg 90%
    11:00 -14°C° 0 mm 5 mps 731 mmHg 90%
    12:00 -14°C° 0 mm 5 mps 731 mmHg 90%
    13:00 -14°C° 0 mm 5 mps 731 mmHg 90%
    14:00 -14°C° 0 mm 5 mps 731 mmHg 89%
    15:00 -14°C° 0 mm 5 mps 731 mmHg 89%
    16:00 -15°C° 0 mm 5 mps 730 mmHg 89%
    17:00 -15°C° 0.1 mm 5 mps 730 mmHg 90%
    18:00 -15°C° 0.1 mm 5 mps 730 mmHg 90%
    19:00 -15°C° 0.1 mm 5 mps 730 mmHg 90%
    20:00 -15°C° 0.1 mm 5 mps 730 mmHg 91%
    21:00 -15°C° 0.1 mm 5 mps 730 mmHg 91%
    22:00 -15°C° 0.1 mm 5 mps 729 mmHg 92%
    23:00 -15°C° 0.1 mm 5 mps 729 mmHg 92%

    25 February, Monday

    Time Temperature Precipitation Wind Pressure Humidity
    00:00 -15°C° 0.1 mm 4 mps 729 mmHg 93%
    01:00 -16°C° 0.1 mm 4 mps 729 mmHg 93%
    02:00 -15°C° 0.1 mm 4 mps 729 mmHg 93%
    03:00 -15°C° 0.1 mm 4 mps 728 mmHg 93%
    04:00 -15°C° 0.1 mm 4 mps 728 mmHg 94%
    05:00 -15°C° 0.1 mm 4 mps 728 mmHg 94%
    06:00 -15°C° 0.1 mm 4 mps 727 mmHg 94%
    07:00 -15°C° 0.1 mm 4 mps 727 mmHg 94%
    08:00 -14°C° 0 mm 4 mps 727 mmHg 93%
    09:00 -14°C° 0 mm 4 mps 726 mmHg 93%
    10:00 -12°C° 0 mm 4 mps 726 mmHg 93%
    11:00 -11°C° 0 mm 4 mps 726 mmHg 93%
    12:00 -11°C° 0 mm 4 mps 725 mmHg 93%
    13:00 -10°C° 0 mm 4 mps 725 mmHg 92%
    14:00 -10°C° 0.1 mm 4 mps 724 mmHg 92%
    15:00 -10°C° 0.1 mm 4 mps 724 mmHg 92%
    16:00 -10°C° 0.1 mm 4 mps 723 mmHg 92%
    17:00 -10°C° 0 mm 4 mps 723 mmHg 93%
    18:00 -10°C° 0 mm 3 mps 723 mmHg 93%
    19:00 -10°C° 0 mm 3 mps 722 mmHg 94%
    20:00 -10°C° 0 mm 3 mps 722 mmHg 94%
    21:00 -10°C° 0 mm 3 mps 722 mmHg 94%
    22:00 -10°C° 0 mm 3 mps 721 mmHg 94%
    23:00 -10°C° 0 mm 3 mps 721 mmHg 94%

    26 February, Tuesday

    Time Temperature Precipitation Wind Pressure Humidity
    00:00 -10°C° 0 mm 3 mps 720 mmHg 94%
    01:00 -10°C° 0 mm 3 mps 720 mmHg 94%
    02:00 -10°C° 0 mm 3 mps 720 mmHg 94%
    03:00 -10°C° 0 mm 3 mps 720 mmHg 95%
    04:00 -10°C° 0 mm 3 mps 719 mmHg 95%
    05:00 -12°C° 0 mm 3 mps 719 mmHg 95%
    06:00 -12°C° 0 mm 3 mps 719 mmHg 95%
    07:00 -12°C° 0 mm 3 mps 718 mmHg 95%
    08:00 -12°C° 0 mm 3 mps 718 mmHg 95%
    09:00 -10°C° 0 mm 3 mps 718 mmHg 95%
    10:00 -9°C° 0 mm 3 mps 718 mmHg 94%
    11:00 -8°C° 0 mm 3 mps 718 mmHg 93%
    12:00 -8°C° 0 mm 3 mps 717 mmHg 93%
    13:00 -7°C° 0 mm 3 mps 717 mmHg 92%
    14:00 -6°C° 0.1 mm 2 mps 717 mmHg 91%
    15:00 -5°C° 0.1 mm 2 mps 716 mmHg 90%
    16:00 -5°C° 0.1 mm 2 mps 716 mmHg 89%
    17:00 -6°C° 0 mm 2 mps 716 mmHg 91%
    18:00 -6°C° 0 mm 2 mps 716 mmHg 93%
    19:00 -7°C° 0 mm 2 mps 716 mmHg 95%
    20:00 -7°C° 0.1 mm 2 mps 715 mmHg 95%
    21:00 -7°C° 0.1 mm 2 mps 715 mmHg 94%
    22:00 -8°C° 0.1 mm 3 mps 715 mmHg 94%
    23:00 -8°C° 0.1 mm 3 mps 714 mmHg 94%
    Show more